Regional Weather Roundup
Issued by NWS

Home | Current Version | Previous Version | Graphics & Text | Print | Product List | Glossary On
Versions: 1 2 3 4 5 6 7 8 9 10 11 12 13 14 15 16 17 18 19 20 21 22 23 24 25 26 27 28 29 30 31 32 33 34 35 36 37 38 39 40 41 42 43 44 45 46 47 48 49 50
000
ASUS43 KDMX 251001
RWRIA

WEATHER ROUNDUP FOR IOWA
NATIONAL WEATHER SERVICE DES MOINES IA
500 AM CDT SAT MAR 25 2017

NOTE: "FAIR" INDICATES FEW OR NO CLOUDS BELOW 12,000 FEET WITH NO
SIGNIFICANT WEATHER AND/OR OBSTRUCTIONS TO VISIBILITY.

* - THESE STATIONS ARE NOT NWS STATIONS...THUS NOT UNDER NWS
QUALITY CONTROL.  THEY ALSO DO NOT REPORT WEATHER SUCH
AS PRECIPITATION OR FOG.

IAZ001>003-012>014-020>022-031>034-043>046-251100-
   NORTHWEST IOWA

CITY           SKY/WX    TMP DP  RH WIND       PRES   REMARKS
CARROLL *      RAIN      39  39 100 NE23      29.95S WCI  29
CHEROKEE *     CLOUDY    38  38  99 NE13G18   30.03R FOG     WCI  30
LE MARS *      CLOUDY    37  37 100 NE14      30.07R WCI  29
ORANGE CITY *  CLOUDY    37  36  93 NE12G20   30.05R FOG     WCI  30
SHELDON *      CLOUDY    36  36 100 NE17G23   30.05R FOG     WCI  25
SIOUX CITY     CLOUDY    39  38  96 N15       30.03S WCI  31
SPENCER        CLOUDY    37  36  96 NE20G28   30.05R WCI  27
STORM LAKE *   CLOUDY    37  36  93 NE23G30   30.00S FOG     WCI  26
$$

IAZ055>058-069>071-079>083-090>094-251100-
   SOUTHWEST IOWA

CITY           SKY/WX    TMP DP  RH WIND       PRES   REMARKS
ATLANTIC *     LGT RAIN  41  41 100 NE16      29.90R
AUDUBON *      DRIZZLE   39  37  93 N15       29.93R WCI  31
CLARINDA *       N/A     43  43 100 NE13      29.89R FOG
COUNCIL BLFS * MIX PCPN  39  39 100 N16G23    29.91S WCI  30
CRESTON *      FOG       41  41 100 NE14G21   29.87R VSB 1/4
HARLAN  *      MIX PCPN  39  39 100 N20G28    29.95F WCI  30
LAMONI         FOG       47  47 100 NE12      29.83R VSB 1/4
RED OAK *      LGT RAIN  41  41 100 NE16G26   29.88S
SHENANDOAH *   LGT RAIN  43  41  93 NE21      29.87S
$$

IAZ047>049-059>061-072>074-084-251100-
   CENTRAL IOWA

CITY           SKY/WX    TMP DP  RH WIND       PRES   REMARKS
AMES           CLOUDY    40  40 100 E12G23    29.93S FOG     WCI  33
ANKENY *       CLOUDY    41  39  93 NE16G22   29.92F FOG
BOONE *        MIX PCPN  39  39 100 NE14      29.94R WCI  31
CHARITON *     FOG       46  46 100 NE15      29.85R VSB<1/4
DES MOINES     FOG       43  41  93 NE18G25   29.89F VSB 1
GRINNELL*      CLOUDY    41  40  97 NE21      29.91F FOG
MARSHALLTOWN   CLOUDY    39  38  96 E16G25    29.94F WCI  30
NEWTON *       CLOUDY    41  41 100 NE16G25   29.90S FOG
PELLA *        FOG       45  44  98 NE9       29.88F VSB 1
PERRY *        LGT RAIN  40  39  96 N13       29.93R WCI  33
$$

IAZ004>006-015-016-023>025-035-036-251100-
   NORTH CENTRAL IOWA

CITY           SKY/WX    TMP DP  RH WIND       PRES   REMARKS
ALGONA *       CLOUDY    39  39 100 NE18      30.02S WCI  30
CLARION *      CLOUDY    37  37 100 NE22      30.00R WCI  27
ESTHERVILLE    CLOUDY    36  36 100 NE20G28   30.05R WCI  25
FORT DODGE *   CLOUDY    37  34  87 NE16      30.00R WCI  28
MASON CITY     CLOUDY    38  35  89 NE17G25   30.04R WCI  28
FOREST CITY *  CLOUDY    37  36  93 NE17G23   30.03R WCI  28
WEBSTER CITY * CLOUDY    39  37  93 NE17G24   29.96R WCI  30
IOWA FALLS *   CLOUDY    39  37  94 NE14G21   29.99R WCI  31
$$

IAZ007>011-017>019-026>030-037>042-050>054-066-251100-
   NORTHEAST IOWA

CITY           SKY/WX    TMP DP  RH WIND       PRES   REMARKS
CEDAR RAPIDS   LGT RAIN  41  41 100 NE18      29.94S FOG
CHARLES CITY * CLOUDY    37  37 100 NE17G28   30.03R WCI  28
CLINTON *      CLOUDY    40  39  97 E18       29.97F WCI  31
DECORAH *      CLOUDY    37  36  93 NE9G20    30.03R WCI  31
MONTICELLO *   CLOUDY    39  37  93 E15G22    29.98R WCI  31
OELWEIN *      CLOUDY    37  37 100 E20       30.00R WCI  27
WATERLOO       CLOUDY    38  35  89 E22       29.99R WCI  27
$$

IAZ064-065-067-068-078-251100-
   EAST CENTRAL IOWA

CITY           SKY/WX    TMP DP  RH WIND       PRES   REMARKS
DAVENPORT      LGT RAIN  41  39  93 E18       29.95F FOG
IOWA CITY      CLOUDY    45  41  86 E15       29.95S
MUSCATINE *    CLOUDY    45  43  93 NE13      29.92F
QUAD CITIES    LGT RAIN  43  40  89 NE15      29.95S FOG
$$

IAZ062-063-075>077-085>089-095>099-251100-
   SOUTHEAST IOWA

CITY           SKY/WX    TMP DP  RH WIND       PRES   REMARKS
BURLINGTON     LGT RAIN  47  47 100 NE20G26   29.85F FOG
FAIRFIELD *    CLOUDY    48  48 100 NE17G26   29.84F FOG
FORT MADISON * LGT RAIN  50  48  93 NE13G22   29.84F
KEOKUK *       LGT RAIN  54  52  94 NE14G23   29.79F
OSKALOOSA *    CLOUDY    45  45  99 E24       29.85F FOG
OTTUMWA        CLOUDY    47  47 100 NE21G29   29.84F FOG
WASHINGTON *   CLOUDY    45  45 100 NE18      29.89F FOG
$$

ABBREVIATIONS USED IN REMARKS
   TC - TEMPERATURES IN CELSIUS
  WCI - WIND CHILL INDEX
   HX - HEAT INDEX
  VSB - VISIBILITY
$$





USA.gov is the U.S. government's official web portal to all federal, state and local government web resources and services.